Weather History for Vernal, UT

Change the Weather History Date:

Thursday, February 20, 2014

  Actual Average Record
Temperature  
Mean Temperature 28 °F 28 °F  
Max Temperature 40 °F 38 °F 62 °F (1958)
Min Temperature 15 °F 18 °F -21 °F (1955)
Degree Days  
Heating Degree Days 37 37  
Month to date heating degree days 752 817  
Since 1 July heating degree days 5596 5212  
Cooling Degree Days 0 0  
Month to date cooling degree days 0 0  
Year to date cooling degree days 0 0  
Moisture  
Dew Point 6 °F    
Average Humidity 46    
Maximum Humidity 67    
Minimum Humidity 25    
Precipitation  
Precipitation 0.00 in 0.02 in 0.28 in (1993)
Month to date precipitation 0.09 0.36  
Year to date precipitation 0.32 0.86  
Sea Level Pressure  
Sea Level Pressure 30.15 in    
Wind  
Wind Speed 7 mph (West)    
Max Wind Speed 18 mph    
Max Gust Speed 25 mph    
Visibility 10 miles    
Events      
T = Trace of Precipitation, MM = Missing Value Source: NWS Daily Summary

Daily Weather History Graph

Daily Weather History Graph

Search for Another Location

Airport:

Trip Planner

Search our weather history database for the weather conditions in past years. The results will help you decide how hot, cold, wet, or windy it might be!

Date:

Astronomy

Feb. 20, 2014 Rise Set
Actual Time 7:04 AM MST 5:59 PM MST
Civil Twilight 6:37 AM MST 6:27 PM MST
Nautical Twilight 6:05 AM MST 6:58 PM MST
Astronomical Twilight 5:33 AM MST 7:30 PM MST
Moon 11:58 PM MST (2/20) 9:48 AM MST (2/20)
Length of Visible Light 11h 49m
Length of Day
10h 54m
Waning Gibbous, 70% of the Moon is Illuminated
Feb 20
Waning Gibbous
Feb 22
Last Quarter
Mar 1
New
Mar 8
First Quarter
Mar 16
Full

Hourly Weather History & Observations

Time (MST) Temp. Windchill Dew Point Humidity Pressure Visibility Wind Dir Wind Speed Gust Speed Precip Events Conditions
12:53 AM 28.0 °F 16.1 °F -0.9 °F 29% 29.99 in 10.0 mi WNW 16.1 mph - N/A   Clear
1:53 AM 26.1 °F 17.6 °F -0.9 °F 31% 30.03 in 10.0 mi NW 8.1 mph - N/A   Clear
2:53 AM 25.0 °F 16.3 °F -0.0 °F 34% 30.06 in 10.0 mi West 8.1 mph - N/A   Clear
3:53 AM 23.0 °F 15.8 °F 1.0 °F 39% 30.10 in 10.0 mi WNW 5.8 mph - N/A   Clear
4:53 AM 21.9 °F 17.2 °F 1.0 °F 40% 30.14 in 10.0 mi NW 3.5 mph - N/A   Clear
5:53 AM 17.1 °F 10.0 °F 5.0 °F 59% 30.19 in 10.0 mi WNW 4.6 mph - N/A   Clear
6:53 AM 16.0 °F - 6.1 °F 65% 30.24 in 10.0 mi Calm Calm - N/A   Clear
7:53 AM 23.0 °F 15.8 °F 3.9 °F 44% 30.24 in 10.0 mi WSW 5.8 mph - N/A   Clear
8:53 AM 27.0 °F 19.5 °F 6.1 °F 41% 30.24 in 10.0 mi SW 6.9 mph - N/A   Clear
9:53 AM 30.0 °F 23.2 °F 7.0 °F 38% 30.25 in 10.0 mi SW 6.9 mph - N/A   Clear
10:53 AM 30.0 °F 26.5 °F 3.9 °F 33% 30.26 in 10.0 mi WSW 3.5 mph - N/A   Clear
11:53 AM 32.0 °F 24.2 °F 5.0 °F 32% 30.23 in 10.0 mi SSW 9.2 mph - N/A   Clear
12:53 PM 34.0 °F - 1.9 °F 26% 30.19 in 10.0 mi Calm Calm - N/A   Clear
1:53 PM 36.0 °F - 3.9 °F 26% 30.17 in 10.0 mi Calm Calm - N/A   Clear
2:53 PM 37.9 °F 35.5 °F 7.0 °F 28% 30.14 in 10.0 mi ESE 3.5 mph - N/A   Clear
3:53 PM 39.9 °F 34.5 °F 8.1 °F 27% 30.13 in 10.0 mi North 8.1 mph - N/A   Partly Cloudy
4:53 PM 37.9 °F 29.6 °F 6.1 °F 27% 30.13 in 10.0 mi SW 13.8 mph - N/A   Clear
5:53 PM 35.1 °F 25.5 °F 9.0 °F 34% 30.16 in 10.0 mi WSW 15.0 mph - N/A   Clear
6:53 PM 33.1 °F 24.4 °F 9.0 °F 37% 30.17 in 10.0 mi West 11.5 mph 21.9 mph N/A   Clear
7:53 PM 32.0 °F 22.1 °F 10.0 °F 40% 30.15 in 10.0 mi West 13.8 mph - N/A   Clear
8:53 PM 30.9 °F 26.2 °F 10.0 °F 42% 30.14 in 10.0 mi West 4.6 mph - N/A   Clear
9:53 PM 30.0 °F 26.5 °F 10.9 °F 45% 30.13 in 10.0 mi SW 3.5 mph - N/A   Clear
10:53 PM 30.0 °F 25.2 °F 12.0 °F 47% 30.12 in 10.0 mi SW 4.6 mph - N/A   Clear
11:53 PM 25.0 °F 20.7 °F 14.0 °F 63% 30.10 in 10.0 mi NNW 3.5 mph - N/A   Mostly Cloudy